FW1695 Weather Reports


time (UTC)temp
C
wind
direction
speed
KPH
gust
KPH
rain 1hr
cm
rain 24hr
cm
rain mn
cm
humidity
%
barometer
mb
20260508031547 25 230 9.7 19.3 0.00 0.00 0.00 60 1003.6
20260508031046 25 252 8.0 17.7 0.00 0.00 0.00 60 1003.6
20260508030547 26 210 4.8 16.1 0.00 0.00 0.00 59 1003.5
20260508030048 26 216 8.0 14.5 0.00 0.00 0.00 59 1003.5
20260508025546 26 209 6.4 14.5 0.00 0.00 0.00 59 1003.4
20260508025145 26 211 4.8 12.9 0.00 0.00 0.00 58 1003.4
20260508024544 26 240 4.8 12.9 0.00 0.00 0.00 58 1003.3
20260508024045 26 210 3.2 12.9 0.00 0.00 0.00 58 1003.2
20260508023545 26 163 3.2 14.5 0.00 0.00 0.00 58 1003.2
20260508023044 26 234 6.4 14.5 0.00 0.00 0.00 58 1003.2
20260508022543 26 231 4.8 17.7 0.00 0.00 0.00 57 1003.0
20260508022043 26 257 6.4 17.7 0.00 0.00 0.00 57 1002.8
20260508021549 26 233 4.8 14.5 0.00 0.00 0.00 56 1002.8
20260508021041 27 262 4.8 17.7 0.00 0.00 0.00 54 1002.7
20260508020541 27 254 6.4 17.7 0.00 0.00 0.00 52 1002.8
20260508020041 27 207 3.2 12.9 0.00 0.00 0.00 51 1002.6
20260508015540 27 202 4.8 12.9 0.00 0.00 0.00 51 1002.5
20260508015040 27 210 6.4 8.0 0.00 0.00 0.00 49 1002.5
20260508014539 27 170 3.2 8.0 0.00 0.00 0.00 46 1002.4
20260508014039 27 190 0.0 0.0 0.00 0.00 0.00 31 1002.3
20260508013540 28 79 0.0 0.0 0.00 0.00 0.00 30 1002.2
20260508013040 28 79 0.0 0.0 0.00 0.00 0.00 30 1001.9
20260508012541 28 79 0.0 0.0 0.00 0.00 0.00 29 1001.9
20260508012039 28 79 0.0 0.0 0.00 0.00 0.00 29 1001.8
20260508011546 29 78 0.0 4.8 0.00 0.00 0.00 29 1001.8
20260508011037 29 65 0.0 4.8 0.00 0.00 0.00 28 1001.8
20260508010539 29 229 0.0 1.6 0.00 0.00 0.00 28 1001.7
20260508010055 30 228 0.0 4.8 0.00 0.00 0.00 28 1001.6
20260508005539 30 65 0.0 4.8 0.00 0.00 0.00 28 1001.5
20260508005036 30 77 0.0 8.0 0.00 0.00 0.00 27 1001.5
20260508004536 30 90 0.0 4.8 0.00 0.00 0.00 27 1001.4
20260508004036 30 103 0.0 6.4 0.00 0.00 0.00 27 1001.4
20260508003536 30 101 0.0 11.3 0.00 0.00 0.00 26 1001.3
20260508003035 30 76 0.0 11.3 0.00 0.00 0.00 25 1001.3
20260508002536 31 78 0.0 6.4 0.00 0.00 0.00 26 1001.3
20260508002035 31 63 1.6 9.7 0.00 0.00 0.00 25 1001.3
20260508001535 31 68 1.6 9.7 0.00 0.00 0.00 25 1001.3
20260508001035 31 79 0.0 12.9 0.00 0.00 0.00 26 1001.2
20260508000534 31 90 0.0 12.9 0.00 0.00 0.00 25 1001.3
20260508000043 31 104 1.6 0.0 0.00 0.00 0.00 25 1001.2
20260507235536 31 116 0.0 8.0 0.00 0.00 0.00 25 1001.2
20260507235033 31 86 1.6 9.7 0.00 0.00 0.00 26 1001.2
20260507234534 31 75 3.2 9.7 0.00 0.00 0.00 26 1001.2
20260507234033 31 82 1.6 9.7 0.00 0.00 0.00 27 1001.2
20260507233532 31 89 0.0 14.5 0.00 0.00 0.00 26 1001.2
20260507233132 31 118 3.2 14.5 0.00 0.00 0.00 26 1001.3
20260507232532 31 94 3.2 14.5 0.00 0.00 0.00 27 1001.2
20260507232032 31 120 4.8 12.9 0.00 0.00 0.00 26 1001.2
20260507231531 31 50 4.8 14.5 0.00 0.00 0.00 26 1001.1
20260507231031 31 108 4.8 16.1 0.00 0.00 0.00 26 1001.1
20260507230532 32 96 3.2 19.3 0.00 0.00 0.00 27 1001.1
20260507230046 32 138 8.0 19.3 0.00 0.00 0.00 26 1001.1
20260507225530 32 116 3.2 14.5 0.00 0.00 0.00 27 1001.2
20260507225029 32 76 4.8 12.9 0.00 0.00 0.00 27 1001.2
20260507224532 32 114 3.2 9.7 0.00 0.00 0.00 25 1001.3
20260507224031 32 137 1.6 9.7 0.00 0.00 0.00 25 1001.4
20260507223532 32 155 0.0 8.0 0.00 0.00 0.00 25 1001.4
20260507223057 32 89 1.6 8.0 0.00 0.00 0.00 25 1001.4
20260507222526 32 113 0.0 6.4 0.00 0.00 0.00 26 1001.5
20260507222027 32 136 3.2 6.4 0.00 0.00 0.00 25 1001.6
20260507221525 31 148 0.0 3.2 0.00 0.00 0.00 26 1001.6
20260507221024 32 217 0.0 1.6 0.00 0.00 0.00 25 1001.7
20260507220524 32 192 0.0 6.4 0.00 0.00 0.00 26 1001.8
20260507220024 32 117 0.0 9.7 0.00 0.00 0.00 25 1001.8
20260507215524 32 105 1.6 17.7 0.00 0.00 0.00 26 1001.9
20260507215023 32 103 3.2 17.7 0.00 0.00 0.00 26 1001.9
20260507214523 32 124 0.0 9.7 0.00 0.00 0.00 26 1002.0
20260507214023 32 82 3.2 12.9 0.00 0.00 0.00 26 1002.0
20260507213522 32 67 4.8 11.3 0.00 0.00 0.00 26 1002.0
20260507213023 32 91 1.6 9.7 0.00 0.00 0.00 27 1002.0
20260507212521 32 108 1.6 9.7 0.00 0.00 0.00 27 1002.1
20260507212021 32 134 0.0 12.9 0.00 0.00 0.00 27 1002.2
20260507211519 32 112 3.2 16.1 0.00 0.00 0.00 27 1002.3
20260507211019 32 84 3.2 16.1 0.00 0.00 0.00 26 1002.3
20260507210520 32 151 0.0 3.2 0.00 0.00 0.00 27 1002.4
20260507210019 32 172 0.0 4.8 0.00 0.00 0.00 27 1002.4
20260507205517 32 179 0.0 12.9 0.00 0.00 0.00 27 1002.6
20260507205017 33 72 4.8 12.9 0.00 0.00 0.00 27 1002.7
20260507204516 33 61 0.0 6.4 0.00 0.00 0.00 27 1002.8
20260507204016 32 53 1.6 11.3 0.00 0.00 0.00 28 1002.8
20260507203515 32 77 3.2 12.9 0.00 0.00 0.00 28 1002.8
20260507203028 32 44 3.2 12.9 0.00 0.00 0.00 28 1003.0
20260507202513 32 63 3.2 16.1 0.00 0.00 0.00 29 1002.9
20260507202018 32 41 3.2 16.1 0.00 0.00 0.00 28 1003.1
20260507201512 32 55 1.6 12.9 0.00 0.00 0.00 27 1003.2
20260507201015 33 69 4.8 17.7 0.00 0.00 0.00 28 1003.3
20260507200510 33 113 3.2 17.7 0.00 0.00 0.00 27 1003.5
20260507200011 32 61 0.0 9.7 0.00 0.00 0.00 28 1003.6
20260507195507 32 150 3.2 9.7 0.00 0.00 0.00 28 1003.8
20260507195007 32 145 1.6 14.5 0.00 0.00 0.00 28 1003.9
20260507194506 32 139 1.6 14.5 0.00 0.00 0.00 29 1004.1
20260507194006 32 151 1.6 14.5 0.00 0.00 0.00 28 1004.1
20260507193504 31 125 3.2 16.1 0.00 0.00 0.00 29 1004.3
20260507193011 31 133 4.8 16.1 0.00 0.00 0.00 30 1004.4
20260507192503 31 160 3.2 12.9 0.00 0.00 0.00 29 1004.5
20260507192001 32 105 0.0 9.7 0.00 0.00 0.00 29 1004.7
20260507191600 31 99 0.0 9.7 0.00 0.00 0.00 30 1004.9
20260507191058 31 91 0.0 11.3 0.00 0.00 0.00 30 1005.0
20260507190557 31 145 0.0 11.3 0.00 0.00 0.00 30 1005.0
20260507190057 31 237 0.0 9.7 0.00 0.00 0.00 30 1005.2
20260507185555 31 69 0.0 6.4 0.00 0.00 0.00 30 1005.3
20260507185054 31 56 0.0 8.0 0.00 0.00 0.00 31 1005.5
20260507184554 31 64 1.6 17.7 0.00 0.00 0.00 31 1005.6
20260507184052 31 140 4.8 17.7 0.00 0.00 0.00 32 1005.6
20260507183554 30 246 1.6 9.7 0.00 0.00 0.00 32 1005.7
20260507183052 31 5 0.0 9.7 0.00 0.00 0.00 32 1005.8
20260507182550 30 1 0.0 9.7 0.00 0.00 0.00 33 1006.0
20260507182050 30 108 0.0 11.3 0.00 0.00 0.00 34 1006.1
20260507181548 30 101 1.6 12.9 0.00 0.00 0.00 34 1006.2
20260507181051 30 148 4.8 12.9 0.00 0.00 0.00 34 1006.2
20260507180547 30 158 4.8 11.3 0.00 0.00 0.00 33 1006.2
20260507180048 31 153 1.6 6.4 0.00 0.00 0.00 32 1006.4
20260507175545 30 300 0.0 3.2 0.00 0.00 0.00 34 1006.4
20260507175043 29 188 0.0 6.4 0.00 0.00 0.00 35 1006.6
20260507174552 29 217 0.0 3.2 0.00 0.00 0.00 36 1006.6
20260507174041 28 187 0.0 8.0 0.00 0.00 0.00 37 1006.8
20260507173542 28 182 0.0 8.0 0.00 0.00 0.00 37 1007.0
20260507173041 28 174 1.6 6.4 0.00 0.00 0.00 37 1007.1
20260507172543 28 222 0.0 8.0 0.00 0.00 0.00 37 1007.3
20260507172038 28 157 1.6 6.4 0.00 0.00 0.00 38 1007.5
20260507171540 28 155 0.0 4.8 0.00 0.00 0.00 39 1007.5
20260507171037 -17 0.0 0.0 0.00 0.00 0.00 1007.6
20260507170536 -17 0.0 0.0 0.00 0.00 0.00 1007.8
20260507170043 -17 0.0 0.0 0.00 0.00 0.00 1007.8
20260507165536 -17 0.0 0.0 0.00 0.00 0.00 1007.9
20260507165036 -17 0.0 0.0 0.00 0.00 0.00 1008.0
20260507164537 -17 0.0 0.0 0.00 0.00 0.00 1008.0
20260507164036 -17 0.0 0.0 0.00 0.00 0.00 1008.0
20260507163536 -17 0.0 0.0 0.00 0.00 0.00 1008.1
20260507163036 -17 0.0 0.0 0.00 0.00 0.00 1008.2
20260507162538 -17 0.0 0.0 0.00 0.00 0.00 1008.2
20260507162035 -17 0.0 0.0 0.00 0.00 0.00 1008.2
20260507161540 -17 0.0 0.0 0.00 0.00 0.00 1008.2
20260507161035 -17 0.0 0.0 0.00 0.00 0.00 1008.3
20260507160535 -17 0.0 0.0 0.00 0.00 0.00 1008.2
20260507160039 -17 0.0 0.0 0.00 0.00 0.00 1008.2
20260507155535 -17 0.0 0.0 0.00 0.00 0.00 1008.2
20260507155034 -17 0.0 0.0 0.00 0.00 0.00 1008.2
20260507154534 -17 0.0 0.0 0.00 0.00 0.00 1008.4
20260507154034 -17 0.0 0.0 0.00 0.00 0.00 1008.4
20260507153534 -17 0.0 0.0 0.00 0.00 0.00 1008.3
20260507153036 -17 0.0 0.0 0.00 0.00 0.00 1008.3
20260507152532 -17 0.0 0.0 0.00 0.00 0.00 1008.4
20260507152031 -17 0.0 0.0 0.00 0.00 0.00 1008.4
20260507151530 -17 0.0 0.0 0.00 0.00 0.00 1008.5
20260507151026 -17 0.0 0.0 0.00 0.00 0.00 1008.5
20260507150530 -17 0.0 0.0 0.00 0.00 0.00 1008.4
20260507150024 -17 0.0 0.0 0.00 0.00 0.00 1008.3
20260507145523 -17 0.0 0.0 0.00 0.00 0.00 1008.4
20260507145021 -17 0.0 0.0 0.00 0.00 0.00 1008.3
20260507144527 -17 0.0 0.0 0.00 0.00 0.00 1008.2
20260507144018 -17 0.0 0.0 0.00 0.00 0.00 1008.2
20260507143516 -17 0.0 0.0 0.00 0.00 0.00 1008.2
20260507143015 -17 0.0 0.0 0.00 0.00 0.00 1008.1
20260507142514 -17 0.0 0.0 0.00 0.00 0.00 1008.1
20260507142013 -17 0.0 0.0 0.00 0.00 0.00 1008.1
20260507141511 -17 0.0 0.0 0.00 0.00 0.00 1008.0
20260507141013 -17 0.0 0.0 0.00 0.00 0.00 1008.0
20260507140508 -17 0.0 0.0 0.00 0.00 0.00 1008.0
20260507140007 -17 0.0 0.0 0.00 0.00 0.00 1008.0
20260507135508 -17 0.0 0.0 0.00 0.00 0.00 1007.9
20260507135004 -17 0.0 0.0 0.00 0.00 0.00 1007.8
20260507134502 -17 0.0 0.0 0.00 0.00 0.00 1007.8
20260507134101 -17 0.0 0.0 0.00 0.00 0.00 1007.8
20260507133559 -17 0.0 0.0 0.00 0.00 0.00 1007.8
20260507133058 -17 0.0 0.0 0.00 0.00 0.00 1007.7
20260507132556 -17 0.0 0.0 0.00 0.00 0.00 1007.5
20260507132056 -17 0.0 0.0 0.00 0.00 0.00 1007.5
20260507131553 -17 0.0 0.0 0.00 0.00 0.00 1007.5
20260507131051 -17 0.0 0.0 0.00 0.00 0.00 1007.5
20260507130549 -17 0.0 0.0 0.00 0.00 0.00 1007.6
20260507130059 -17 0.0 0.0 0.00 0.00 0.00 1007.3
20260507052501 23 271 1.6 16.1 0.00 0.00 0.00 46 1007.0
20260507052002 23 210 6.4 16.1 0.00 0.00 0.00 46 1007.0
20260507051501 23 266 8.0 16.1 0.00 0.00 0.00 46 1006.9
20260507051103 23 240 4.8 16.1 0.00 0.00 0.00 46 1006.8
20260507050603 23 191 6.4 12.9 0.00 0.00 0.00 45 1006.7
20260507050100 23 228 4.8 17.7 0.00 0.00 0.00 46 1006.6
20260507045606 23 321 4.8 19.3 0.00 0.00 0.00 46 1006.5
20260507045059 23 245 8.0 22.5 0.00 0.00 0.00 47 1006.6
20260507044601 23 258 8.0 20.9 0.00 0.00 0.00 47 1006.7
20260507044200 23 231 11.3 20.9 0.00 0.00 0.00 47 1006.8
20260507043559 23 240 9.7 22.5 0.00 0.00 0.00 47 1006.8
20260507043102 23 156 6.4 25.7 0.00 0.00 0.00 46 1006.5
20260507042559 23 203 8.0 25.7 0.00 0.00 0.00 46 1006.6
20260507042059 23 243 11.3 25.7 0.00 0.00 0.00 46 1006.4
20260507041558 23 203 11.3 25.7 0.00 0.00 0.00 46 1006.3
20260507041057 23 243 16.1 25.7 0.00 0.00 0.00 46 1006.3
20260507040557 23 203 9.7 24.1 0.00 0.00 0.00 46 1006.2
20260507040057 23 224 9.7 29.0 0.00 0.00 0.00 46 1006.5
20260507035557 24 245 12.9 29.0 0.00 0.00 0.00 46 1006.4
20260507035057 24 210 9.7 24.1 0.00 0.00 0.00 46 1006.2
20260507034557 25 261 11.3 29.0 0.00 0.00 0.00 45 1005.9
20260507034056 25 208 11.3 29.0 0.00 0.00 0.00 44 1005.8
20260507033555 25 229 14.5 27.4 0.00 0.00 0.00 43 1005.7
20260507033057 25 256 12.9 20.9 0.00 0.00 0.00 41 1005.7
20260507032556 26 216 4.8 12.9 0.00 0.00 0.00 40 1005.6
20260507032055 26 253 3.2 9.7 0.00 0.00 0.00 40 1005.3